sat.trackr.live / text

‹ back to catalog

ICEYE-X64

NORAD 67373 · 2026-004L

PAYLOAD ACTIVE UNKNOWN

§ Identity

Operator
Country
NETH
Launch date
2026-01-11
Launch site
AFWTR
Launch vehicle
Mass (kg)
RCS (m²)

External: N2YO · Heavens-Above · Gunter

§ Orbital elements

Epoch: 2026-09-20T22:44:44.398176Z

Period
96.77 min
Inclination
97.8088°
Eccentricity
0.0006078
Mean motion
14.88078936 rev/d
Perigee alt
599.7 km
Apogee alt
608.2 km
Semi-major
6,982.1 km
B*
5.8384e-5
RAAN
261.0238°
Arg perigee
166.8161°
Mean anomaly
193.3215°
Rev number
3,753

§ Raw data

ICEYE-X641 67373U 26004L   26263.94773609  .00000482  00000+0  58384-4 0  99972 67373  97.8088 261.0238 0006078 166.8161 193.3215 14.88078936 37536

JSON: /api/v1/satellites/67373 · /tle

For live sub-satellite position, see the globe view (requires WebGL).

§ Visibility from observer

Set your observer location to see the next 7 days of passes ≥ 10°. The values pass through the URL so the page stays shareable.

No JS? Fill the form by hand. The geolocation button needs JavaScript.

§ Radio — SatNOGS DB

ModeDescriptionDownlinkUplink
UNKNOWN S-band telemetry 2.264 GHz

1 transmitter · refreshed weekly from db.satnogs.org